Weather in Ostashkovo

Russia / Tver Oblast     57°08′17″N   35°08′07″E
temp.,
°C
wind,
m/s
gust,
m/s
humid.,
%
clouds,
%
prec.,
mm/h
press.,
hPa
HPBL,
m
19 april, mon
mon1900:00+6ne4117629 0.0 1025451
03:00+4ene41086100 0.0 1026378
06:00+4ne4992100 0.0 1026376
09:00+6ene4782100 0.0 1026611
12:00+7ene5768100 0.0 1026976
15:00+10ene565299 0.0 10261445
18:00+9e4751100 0.0 1025684
21:00+7e4961100 0.0 1025710
20 april, tue
tue2000:00+5e496099 0.0 1025621
03:00+3e4106774 0.0 1025511
06:00+1e41070100 0.0 1024508
09:00+4e586359 0.0 1023776
12:00+7e5856100 0.0 10221077
15:00+7e6868100 0.0 10211035
18:00+3ene41095100 0.5 1019700
21:00+3e41196100 1.4 1017747
21 april, wed
wed2100:00+3e31097100 0.4 1014809
03:00+3ene41197100 1.8 1011579
06:00+1ne41197100 3.7 1007510
09:00+1ne4997100 5.9 1005487
12:00+2nne2596100 0.3 1002366
15:00+2wnw2496100 0.6 1002355
18:00+2wsw3898100 0.3 1003356
21:00+2sw41097100 0.9 1006744
22 april, thu
thu2200:00+3ssw3893100 0.0 1008412
03:00+2s3109799 0.0 1008318
06:00+3s4139487 0.1 1009399
09:00+6ssw51188100 0.4 1010546
12:00+9ssw4780100 0.3 10101004
15:00+10ssw5875100 0.3 10121063
18:00+10s47805 0.1 1012756
21:00+6sse3109477 0.1 1014214
23 april, fri
fri2300:00+5sse39955 0.0 1014178
03:00+4sse289646 0.0 1013152
06:00+4sse3995100 0.0 1013199
09:00+10s4127880 0.0 1012521
12:00+14ssw6106691 0.1 10121432
15:00+12ssw48775 1.4 1011831
18:00+13sse5127499 1.7 10091015
21:00+9sw5119299 5.2 1010743